OBJECT F

Satellite information

Favourite Embed

Satellite Type and Status

UNKNOWNIN ORBIT

Key statistics

Satellite OBJECT F at a glance.

Uptime

313

Days in orbit

Revolutions

≈ 15.3

Per day

Orbit

SSO

Sun Synchronous Orbit

Inclination

97.6

Latest

Satellite identification and parameters

Extended collection of information and parameters for OBJECT F.

Object identification

Identified? True

Debris? False

Object name: OBJECT F

International designator: 2024-153F

Object number (NORAD): 60750

Object ID (CCSDS): 60750

Country: PEOPLES REPUBLIC OF CHINA (PRC)

Current information (Y/N): Y

RCS size: MEDIUM

Orbital parameters

Period: 94.419 minutes

Inclination: 97.6355 deg

SMA: 6868.568 km

Apoapsis: 499.214 km

Periapsis: 481.651 km

RAAN: 314.8158 deg

Eccentricy: 0.0012785

Argument of periapsis: 292.9808 deg

Mean anomaly: 67.008 deg

Mean motion: 15.25118074 rev/day

Mean motion (dot): 0.00011025 rev/day2

B* drag term: 0.00044206 1/REarth

Two-line elements (TLE)

Creation date: July 8, 2025, 2:27 a.m.

Reference frame: TEME

Reference center: EARTH

Epoch: July 7, 2025, 10:15 p.m. UTC

TLE line 0: 0 OBJECT F

TLE line 1: 1 60750U 24153F 25188.92776404 .00011025 00000-0 44206-3 0 9994

TLE line 2: 2 60750 97.6355 314.8158 0012785 292.9808 67.0080 15.25118074 47451

Live tracking on map

Real-time ground track for satellite OBJECT F.

In-orbit conjunctions

There are no conjunctions computed for OBJECT F, at the moment. Check back to stay up to date, as we update our databases every day.

Go to all conjunctions

Associated space launch

Carried 6 satellites to sun synchronous orbit: * Yunyao-1 15 to 17 * Jitianxing A-03 * Suxing 1-01 * Tianfu Gaofen 2

OBJECT F was lifted into orbit during the mission ‘Ceres-1S | 6 satellites’, on board a Ceres-1S space rocket.

The launch took place on Aug. 29, 2024, 5:22 a.m. from Haiyang Spaceport.

For more information about the launch, click the button.

Launch to space Ceres-1S | 6 satellites
Ceres-1S | 6 satellites

Agency: N/A

Status: Launch Successful

Launch date: Aug. 29, 2024, 5:22 a.m. UTC

Rocket: Ceres-1S

Launch pad: Haiyang Spaceport

Location: Sea Launch

...

Latest news about this satellite

News about space launch
Polaris Dawn on hold; SpaceX booster fails on landing

Another busy week of spaceflight activities contained a landing failure of a Falcon 9 booster for the first time in over three years. Looking forward, Falcon 9 could launch up to five launches this week, including the Polaris Dawn mission, whose private c...

News about space launch
Galactic Energy launches six satellites with third sea launch

HELSINKI — China’s Galactic Energy conducted its third Ceres-1 solid rocket sea launch Thursday, successfully sending six satellites into orbit. The Ceres-1 lifted off from a transport erector launcher on […]

News about space launch
Launch Roundup: Falcon Heavy returns with GOES-U, Firefly Alpha launch attempt

Following a week in which Tropical Storm Alberto brought high seas, wind, and rain-related delays to the launch schedule in Florida, SpaceX managed to get back on track this week with launches from all three of the active Falcon launch pads, including a F...


Newsletter sign-up

Weekly statistics, charts and insights to help you stay on top of the space industry.